Temp
9 10 10 10 10 10 10 10 7 9 9 7 1 2 4 5 5 5 5 5 5 5 4 4 -0 1 0 4 3 3 1 -0 -0 3 2 2 1 1 2 1 1 3 2 3
10 10 10 10 10 11 11 10 10 10 9 2 1 4 5 5 5 5 5 5 5 5 4 4 3 2 4 4 3 2 1 -0 -0 3 2 1 2 2 2 1 -0 2 1 3
10 10 11 11 11 11 11 10 3 9 9 5 4 5 5 5 5 5 5 5 5 5 4 3 4 4 4 3 4 4 3 0 2 3 4 2 2 2 2 2 1 -0 2 4
10 10 10 11 11 11 11 9 5 5 1 4 4 5 5 5 6 5 5 5 4 4 4 4 3 3 3 2 3 2 2 1 -1 1 2 2 2 3 2 2 3 3 0 0
10 10 10 10 11 11 11 10 8 6 4 5 5 4 5 6 6 5 5 4 5 3 4 4 4 3 3 3 1 1 -1 1 -0 0 2 1 1 2 2 3 3 3 4 4
9 9 9 9 10 11 10 8 7 7 3 3 4 4 5 6 6 6 6 5 4 3 4 5 6 6 5 4 1 0 -0 -1 1 0 1 2 4 2 2 2 1 3 2 5
8 8 8 8 9 9 9 8 7 7 4 2 4 5 5 5 6 6 6 5 4 6 6 5 4 3 2 2 2 2 -1 -0 1 1 1 7 8 3 3 3 3 2 3 4
7 7 7 7 8 8 7 7 7 6 4 3 4 4 4 5 5 5 5 6 5 5 5 4 3 2 2 0 -0 -0 0 1 2 0 -1 4 8 4 3 3 7 4 3 4
7 7 7 7 7 6 5 5 5 5 5 3 6 5 5 3 3 3 5 4 5 5 3 4 5 4 5 2 0 -1 -0 0 1 -0 1 5 7 5 5 4 6 7 5 5
6 7 7 7 6 5 4 4 4 4 5 5 5 5 4 6 4 3 4 4 3 4 2 3 2 4 3 4 2 1 0 1 2 2 2 3 4 5 5 7 9 8 8 7
6 6 6 6 6 5 4 3 3 3 3 4 4 4 5 5 5 4 5 4 2 1 2 2 4 3 3 3 3 1 2 1 1 2 2 2 5 4 6 8 9 8 7 7
5 5 5 5 4 4 3 3 3 3 3 4 4 4 3 4 4 5 5 6 4 4 3 2 3 3 2 4 5 2 3 3 3 3 4 7 6 7 8 7 6 7 7 7
4 4 5 4 4 4 3 2 3 3 3 3 3 6 5 5 5 5 4 5 5 5 5 4 3 3 3 3 1 3 2 4 4 4 6 6 7 8 7 7 7 6 6 5
4 4 4 4 4 4 3 2 2 2 3 2 4 5 5 5 6 6 5 4 4 4 4 3 2 2 3 2 3 3 5 3 2 1 5 5 7 8 7 6 6 6 5 4
4 4 4 3 3 3 3 2 2 2 3 3 4 3 5 5 4 4 5 4 3 2 2 1 1 1 2 2 1 3 4 4 3 5 7 6 6 6 6 5 4 4 3 4
3 3 3 2 1 0 1 2 3 2 2 2 1 3 4 4 4 3 2 2 2 1 2 2 2 2 3 1 1 4 8 7 7 5 6 6 6 5 5 3 4 4 4 4
2 2 2 2 1 0 1 2 2 3 3 2 1 1 2 1 1 1 1 0 -0 0 1 -0 1 1 2 0 3 5 6 6 6 6 4 4 4 3 4 4 4 4 4 5
1 1 1 1 1 1 1 2 2 2 1 2 1 1 1 0 -0 -1 -1 -1 -1 -1 -1 -1 -1 0 0 1 3 5 5 4 4 4 3 3 3 4 4 4 4 4 4 5
0 0 1 1 1 0 1 1 1 1 2 2 0 1 2 -1 -1 -1 -2 -2 -1 -1 -2 -1 -1 -0 0 1 2 3 5 4 3 3 3 3 3 4 4 4 4 4 4 4
-1 -0 1 -0 0 0 -0 1 1 1 1 1 0 2 -0 1 -1 -2 -2 -2 -1 -1 -1 -1 -1 0 2 4 5 4 3 3 3 3 3 3 3 3 3 3 3 3 3 3
-1 -0 -0 0 0 0 1 1 0 0 -1 -0 -0 0 2 0 -0 -1 -0 -1 -2 -3 -2 -1 -2 -1 -1 3 3 3 3 3 3 2 3 3 2 2 2 2 2 2 2 2
-1 -1 -1 -0 0 -1 -1 -0 -0 -0 0 -1 -1 -1 -0 -0 -0 -0 -1 -1 -2 -2 -3 -2 -2 -2 1 3 3 3 2 2 2 2 3 3 3 2 2 1 1 1 1 1
-3 -1 -1 -1 -1 -1 -1 -3 -0 0 -1 -2 -2 -2 -1 -1 -1 -1 -1 -1 -1 -3 -4 -2 -3 0 2 3 3 2 1 2 2 2 2 2 1 1 0 -0 -0 -0 0 1
-4 -3 -4 -2 -5 -1 -2 -4 -4 -0 -1 -2 -2 -1 -2 -1 -2 -1 -1 -1 -3 -4 -4 -4 -4 1 2 2 1 1 1 1 1 1 1 0 -0 -0 -0 -1 -1 -1 -0 -0
-4 -4 -3 -4 -2 -2 -2 -1 -1 -0 -1 -1 -2 -2 -2 -3 -2 -2 -1 -1 -2 -3 -4 -5 1 1 2 1 1 1 1 1 1 1 1 -0 -1 -0 -0 -1 -1 -1 -1 -1
-3 -4 -4 -5 -5 -4 -2 -2 -2 -1 -1 -2 -2 -2 -2 -3 -2 -2 -2 -3 -4 -2 -3 1 1 2 2 2 2 2 1 1 1 1 1 -0 -0 -1 -1 -1 -1 -1 -1 -1
-4 -4 -3 -2 -3 -1 0 -0 1 -1 -2 -1 -2 -3 -4 -8 -7 -7 -6 -3 -3 2 1 1 1 1 1 2 1 1 1 1 1 1 1 -1 -1 -1 -1 -1 -1 -1 -1 -1
Height
1566 1563 1560 1557 1554 1551 1552 1551 1552 1552 1550 1551 1558 1567 1566 1567 1568 1568 1569 1571 1572 1573 1576 1576 1585 1583 1580 1574 1575 1579 1582 1589 1591 1575 1575 1574 1577 1578 1579 1587 1591 1580 1583 1547
1568 1565 1562 1558 1555 1553 1552 1552 1553 1553 1550 1562 1567 1567 1567 1568 1569 1570 1570 1570 1571 1572 1574 1577 1577 1577 1573 1573 1574 1577 1579 1588 1595 1575 1578 1576 1575 1573 1573 1579 1584 1579 1587 1542
1569 1567 1564 1561 1557 1554 1554 1554 1557 1555 1554 1559 1562 1566 1568 1569 1569 1569 1570 1571 1572 1573 1573 1573 1573 1573 1572 1572 1574 1575 1576 1583 1577 1572 1562 1567 1570 1566 1568 1569 1578 1576 1552 1522
1570 1568 1566 1563 1560 1557 1556 1556 1562 1562 1567 1564 1564 1565 1566 1567 1567 1568 1569 1571 1572 1573 1575 1574 1575 1572 1572 1573 1573 1575 1577 1581 1579 1569 1562 1561 1556 1556 1559 1560 1555 1555 1538 1536
1571 1569 1567 1564 1562 1560 1559 1559 1561 1563 1565 1565 1565 1567 1567 1566 1565 1567 1568 1569 1567 1570 1572 1569 1570 1571 1572 1570 1574 1575 1577 1577 1576 1563 1554 1554 1550 1545 1546 1546 1543 1540 1531 1523
1570 1569 1567 1565 1563 1561 1560 1561 1562 1562 1565 1565 1566 1566 1565 1564 1564 1563 1562 1563 1566 1568 1564 1564 1564 1565 1564 1564 1567 1573 1576 1579 1575 1568 1553 1547 1534 1523 1530 1530 1527 1525 1533 1502
1569 1568 1567 1565 1564 1562 1562 1562 1562 1562 1565 1565 1564 1563 1563 1562 1562 1563 1561 1562 1563 1562 1561 1561 1560 1561 1562 1563 1565 1565 1574 1575 1574 1567 1555 1529 1507 1512 1513 1516 1513 1512 1506 1498
1569 1567 1566 1564 1563 1562 1562 1562 1563 1563 1563 1563 1562 1562 1562 1561 1560 1560 1559 1560 1561 1560 1560 1561 1560 1561 1561 1564 1566 1567 1567 1570 1570 1573 1574 1531 1505 1512 1515 1516 1501 1498 1500 1495
1569 1567 1566 1565 1564 1562 1561 1561 1562 1562 1563 1560 1560 1560 1560 1561 1561 1560 1558 1558 1558 1560 1560 1561 1559 1560 1552 1561 1567 1568 1568 1568 1570 1575 1569 1538 1508 1510 1510 1511 1505 1494 1495 1491
1568 1566 1565 1564 1563 1562 1562 1561 1560 1561 1561 1557 1557 1558 1558 1558 1558 1558 1557 1557 1557 1558 1560 1562 1564 1555 1553 1553 1559 1563 1568 1568 1564 1564 1562 1535 1511 1509 1510 1509 1497 1489 1491 1489
1566 1565 1564 1562 1560 1560 1560 1560 1559 1560 1557 1553 1551 1552 1553 1553 1553 1554 1555 1556 1555 1557 1560 1560 1553 1555 1549 1550 1548 1550 1547 1554 1557 1558 1557 1542 1502 1507 1508 1499 1492 1490 1487 1483
1561 1561 1561 1560 1559 1558 1555 1556 1555 1555 1555 1550 1548 1545 1544 1546 1548 1551 1550 1547 1547 1546 1549 1551 1550 1549 1548 1542 1540 1538 1540 1527 1530 1532 1513 1497 1497 1492 1492 1492 1490 1484 1482 1477
1557 1556 1555 1556 1555 1555 1556 1553 1552 1551 1548 1541 1536 1533 1536 1536 1539 1543 1546 1542 1542 1541 1542 1542 1542 1543 1538 1535 1535 1526 1522 1518 1520 1518 1495 1495 1494 1491 1490 1489 1486 1483 1478 1472
1551 1552 1551 1549 1549 1550 1549 1549 1551 1551 1548 1541 1530 1529 1528 1530 1532 1533 1533 1535 1534 1535 1538 1538 1536 1535 1529 1524 1518 1517 1511 1512 1510 1506 1494 1492 1488 1485 1484 1482 1479 1474 1470 1465
1544 1545 1546 1546 1543 1541 1542 1542 1541 1545 1548 1537 1529 1525 1524 1523 1524 1527 1528 1527 1529 1530 1531 1531 1529 1525 1525 1518 1515 1502 1502 1498 1502 1492 1485 1485 1483 1481 1479 1475 1472 1468 1464 1458
1538 1539 1540 1542 1542 1540 1538 1538 1534 1535 1539 1536 1525 1518 1516 1513 1515 1518 1520 1521 1523 1524 1521 1519 1515 1514 1517 1512 1500 1484 1484 1485 1485 1483 1481 1480 1477 1476 1474 1470 1466 1463 1460 1457
1536 1532 1534 1536 1537 1537 1535 1536 1534 1532 1532 1533 1524 1514 1509 1510 1506 1511 1513 1514 1515 1518 1515 1509 1508 1509 1511 1501 1487 1482 1481 1480 1479 1476 1475 1473 1472 1470 1467 1465 1462 1460 1457 1453
1533 1531 1528 1530 1531 1530 1530 1529 1529 1531 1531 1530 1521 1511 1509 1507 1507 1507 1509 1509 1510 1508 1506 1503 1501 1503 1502 1488 1471 1472 1471 1473 1472 1471 1470 1468 1466 1465 1464 1461 1457 1454 1450 1447
1528 1528 1527 1525 1524 1524 1521 1524 1523 1526 1528 1518 1511 1507 1504 1502 1505 1505 1507 1510 1507 1501 1496 1495 1496 1488 1479 1468 1462 1462 1464 1466 1466 1465 1466 1465 1464 1461 1458 1455 1453 1451 1447 1442
1522 1524 1524 1520 1519 1518 1520 1517 1517 1515 1512 1506 1498 1500 1500 1500 1502 1501 1505 1504 1502 1495 1487 1486 1483 1468 1461 1457 1455 1457 1460 1462 1463 1463 1462 1461 1460 1458 1456 1453 1449 1445 1441 1435
1518 1518 1517 1516 1518 1518 1514 1510 1507 1502 1500 1494 1491 1494 1494 1495 1497 1498 1497 1493 1493 1494 1482 1482 1473 1461 1451 1448 1449 1450 1455 1457 1459 1459 1458 1457 1455 1453 1449 1445 1442 1438 1433 1429
1514 1515 1513 1513 1515 1513 1510 1500 1496 1489 1488 1486 1485 1484 1487 1487 1488 1488 1487 1486 1485 1481 1477 1478 1468 1451 1444 1445 1447 1452 1456 1457 1457 1456 1454 1452 1450 1447 1444 1441 1435 1430 1426 1421
1511 1513 1511 1508 1506 1504 1497 1497 1487 1484 1479 1480 1480 1481 1482 1483 1484 1481 1480 1479 1474 1473 1476 1466 1455 1443 1444 1446 1448 1451 1453 1454 1453 1451 1448 1445 1442 1439 1436 1432 1427 1422 1417 1413
1506 1507 1507 1499 1495 1480 1475 1477 1477 1476 1477 1478 1480 1480 1478 1477 1480 1476 1472 1468 1470 1472 1471 1460 1442 1439 1442 1445 1446 1447 1447 1447 1444 1442 1440 1436 1432 1428 1426 1424 1418 1412 1407 1404
1499 1498 1491 1481 1473 1473 1474 1471 1471 1473 1475 1477 1478 1477 1476 1474 1474 1469 1466 1464 1460 1457 1454 1448 1437 1437 1439 1442 1443 1442 1440 1437 1435 1432 1428 1427 1425 1419 1414 1412 1408 1404 1398 1394
1483 1481 1477 1472 1469 1466 1470 1472 1469 1469 1471 1474 1475 1473 1471 1468 1464 1462 1456 1456 1455 1443 1441 1442 1442 1440 1440 1438 1436 1434 1431 1428 1424 1422 1417 1417 1414 1409 1403 1399 1397 1393 1390 1385
1467 1465 1463 1462 1461 1460 1463 1464 1464 1466 1471 1470 1470 1471 1469 1462 1465 1466 1456 1450 1439 1436 1435 1435 1434 1432 1430 1428 1426 1423 1421 1417 1414 1410 1407 1405 1401 1397 1393 1388 1385 1383 1379 1376
Wind_Speed
21 22 22 21 18 9 3 3 3 12 6 4 5 3 3 3 3 2 2 2 2 3 3 2 2 4 7 6 7 3 2 3 4 6 2 1 3 5 5 3 4 4 1 8
19 21 23 22 20 14 3 2 3 9 6 3 2 1 2 1 2 1 1 2 3 2 3 0 3 3 2 9 7 5 5 0 4 4 3 3 4 4 3 3 2 7 5 7
16 18 19 21 20 17 7 2 3 6 9 8 5 3 2 2 1 1 1 1 1 1 2 4 2 3 2 8 5 3 7 3 6 6 5 4 4 5 9 6 3 4 12 14
13 15 16 18 19 16 8 5 4 3 3 6 4 2 3 3 2 2 3 1 4 4 2 1 4 3 1 3 5 4 3 4 4 9 16 13 16 15 11 16 13 8 3 8
11 11 13 15 17 13 14 4 2 3 3 2 2 3 3 3 2 5 2 3 1 5 5 7 6 5 3 5 2 6 1 3 2 6 6 7 14 17 18 20 20 22 24 29
11 11 11 11 13 15 8 7 4 2 1 1 2 2 3 3 2 5 5 7 3 4 11 18 17 12 6 7 8 7 5 2 3 6 4 12 7 7 16 6 4 20 14 15
14 13 12 11 11 13 11 8 4 1 1 2 3 2 4 4 5 3 2 8 5 2 3 8 9 6 5 7 8 8 5 3 2 5 8 3 2 4 7 14 7 18 10 14
17 16 15 14 11 10 9 7 5 3 2 3 3 5 5 6 6 5 5 7 6 4 4 2 5 2 1 1 2 3 2 4 2 2 3 10 3 1 4 6 6 9 19 17
17 16 15 14 13 11 9 8 6 3 2 4 2 2 2 2 2 4 2 3 3 3 2 1 2 3 1 1 1 5 3 2 3 1 2 5 1 2 2 2 4 3 12 12
16 15 15 14 13 11 8 5 4 3 4 4 5 5 2 4 3 2 2 2 3 6 2 2 4 3 3 3 5 5 3 3 9 8 4 10 9 7 4 3 4 20 12 23
17 15 13 14 13 12 10 6 4 6 5 13 17 15 13 10 6 3 4 1 2 2 3 3 3 3 3 1 4 6 8 8 5 5 4 8 11 3 4 7 27 30 30 35
18 17 15 13 12 12 12 10 8 8 12 13 24 30 30 26 22 14 10 5 5 10 2 2 1 3 2 4 4 2 4 7 6 12 8 4 12 14 24 29 31 38 34 36
21 21 19 16 14 13 15 14 12 12 13 23 15 5 11 11 14 17 11 12 12 8 11 6 2 5 3 5 6 5 5 11 3 1 12 18 25 26 28 30 26 30 35 32
21 22 21 19 17 15 17 20 18 14 9 6 9 8 8 6 4 10 22 28 11 13 11 7 3 3 12 3 5 5 6 11 6 6 20 23 26 18 18 25 37 32 34 35
19 21 21 19 17 15 15 19 23 21 15 5 10 22 32 29 28 23 22 26 34 19 7 6 4 5 3 5 3 8 14 10 6 8 22 18 19 28 33 38 27 31 24 24
17 17 17 16 14 8 8 6 9 13 24 10 3 8 19 24 22 20 23 24 25 19 10 7 8 7 9 4 4 4 16 25 30 26 32 31 36 32 26 26 22 17 16 18
14 13 14 14 13 15 15 6 3 1 4 6 7 5 7 13 14 13 14 18 14 13 8 7 6 10 11 3 11 5 11 18 31 42 30 22 23 19 13 9 11 15 20 25
14 13 12 13 14 17 24 23 22 23 15 8 4 4 4 6 4 4 7 7 10 9 7 4 5 5 8 6 12 24 30 23 21 21 17 17 13 4 8 11 17 21 24 28
14 14 13 13 14 11 17 22 19 20 17 5 7 3 3 6 4 4 5 6 4 7 6 6 9 4 7 9 19 21 14 9 17 10 2 2 6 11 15 19 22 24 27 30
11 11 6 4 6 10 9 7 6 10 13 14 6 7 4 9 9 5 3 6 3 3 6 7 4 4 16 30 35 27 17 9 1 2 7 12 15 15 17 21 24 27 31 35
8 5 6 7 7 5 5 6 8 7 4 6 6 21 14 13 5 4 9 3 3 2 4 5 3 4 8 15 13 8 11 9 5 8 12 14 18 23 26 31 33 34 36 38
7 5 5 4 5 6 5 4 5 4 4 6 5 5 6 6 11 8 8 4 3 6 8 3 3 5 8 10 12 12 9 6 8 11 16 19 20 22 28 34 33 31 33 35
11 6 5 5 7 6 7 6 3 3 5 8 8 4 5 7 11 7 3 5 5 10 2 4 5 4 13 15 12 10 9 13 19 22 23 23 24 29 27 31 28 30 33 32
9 7 5 6 5 6 5 4 4 3 3 8 8 3 7 6 3 3 4 3 3 3 3 6 3 12 20 12 8 15 22 25 25 25 27 29 30 29 27 28 32 31 34 32
9 8 6 9 11 8 4 4 5 8 5 7 4 6 6 4 4 4 3 3 4 5 5 3 7 6 18 5 21 28 31 31 37 35 30 32 33 33 33 31 32 32 34 35
10 11 7 7 3 8 16 16 12 8 5 5 4 3 2 4 3 3 5 2 5 3 2 4 2 10 28 41 38 37 37 41 40 38 33 33 32 33 34 36 35 33 32 32
8 10 25 26 13 19 23 20 22 16 9 4 4 5 10 0 2 3 3 4 4 18 18 27 36 40 39 38 41 43 44 42 41 37 37 36 35 35 38 40 37 34 31 31
Wind_Direction
27 27 30 29 26 26 41 42 43 1 6 33 47 69 136 128 166 139 115 106 112 161 175 194 184 213 211 179 154 103 186 145 269 221 15 180 165 183 159 139 219 220 191 272
22 22 23 24 26 28 41 58 49 16 24 83 49 74 59 60 112 261 143 154 180 174 185 339 207 219 255 182 160 163 176 313 332 347 13 24 230 197 170 110 112 201 160 260
14 19 23 23 22 25 40 51 35 35 55 71 111 134 127 130 133 136 212 157 107 95 208 219 231 244 194 195 199 182 163 182 203 209 204 150 211 190 192 172 185 190 229 276
14 15 18 25 23 27 39 47 62 36 347 21 70 75 162 144 186 175 191 281 215 184 232 254 245 230 176 178 204 140 154 250 215 261 263 251 255 246 205 210 211 210 282 238
12 18 18 22 26 30 41 68 70 80 88 25 39 355 212 192 191 165 211 191 184 189 223 201 215 168 209 206 158 158 155 268 334 281 267 246 255 244 230 232 233 246 260 277
10 15 20 27 29 31 51 48 44 119 83 95 106 224 180 229 191 216 216 199 165 211 246 261 267 251 256 217 163 181 165 194 0 268 307 301 280 238 200 196 208 221 232 238
3 8 17 24 28 33 42 37 30 1 224 182 209 212 214 225 227 251 233 206 169 234 275 294 275 265 243 214 213 175 145 163 200 284 325 316 224 187 186 206 230 210 252 262
354 356 359 4 15 28 36 39 32 3 283 238 279 243 237 275 254 236 242 244 232 262 310 347 327 343 326 77 34 201 159 150 270 282 275 295 292 98 136 175 289 217 229 255
335 341 345 350 352 360 14 32 44 10 321 241 223 231 218 246 258 321 232 225 225 196 103 107 253 262 314 206 82 33 105 74 174 146 269 265 16 357 258 176 285 33 211 244
328 331 329 331 335 340 347 359 2 3 282 263 223 211 211 235 200 221 247 219 179 181 137 200 200 253 164 226 187 169 163 208 221 229 260 280 257 243 319 342 281 337 313 313
317 323 323 318 318 316 318 319 311 301 252 271 263 258 236 221 206 177 176 316 212 104 164 198 224 223 231 255 177 188 181 170 192 183 224 270 212 130 154 265 299 308 308 310
312 313 312 306 297 291 288 288 307 284 269 266 283 281 271 253 253 252 212 235 180 205 164 201 193 236 207 200 257 172 248 194 183 190 221 256 203 252 290 300 299 309 314 318
307 307 305 303 295 282 276 269 265 278 282 296 271 261 291 260 221 237 229 229 224 219 221 180 203 229 161 207 225 218 241 190 233 169 256 259 277 281 290 303 307 313 313 314
297 299 295 290 286 279 269 263 268 262 264 268 289 290 262 192 206 242 230 229 223 228 222 219 199 214 198 234 248 212 211 156 200 258 276 283 280 293 309 312 317 314 317 316
281 288 287 283 280 278 278 269 258 243 236 269 280 284 284 279 271 260 243 232 234 232 205 213 220 219 195 240 271 238 215 230 221 247 269 268 275 297 302 316 316 319 322 329
280 282 280 275 270 263 275 300 267 260 241 263 272 256 268 266 256 245 244 237 232 218 205 213 223 206 201 231 253 224 227 233 246 254 279 286 289 298 306 313 318 332 347 -0
282 280 279 274 262 234 224 226 233 121 237 259 286 265 243 265 247 244 235 227 218 217 229 223 217 196 206 247 252 262 247 254 276 283 291 288 295 303 316 333 3 3 359 360
286 285 281 276 267 253 246 241 241 259 281 272 248 257 267 220 212 195 198 197 205 224 234 220 202 202 207 253 254 262 264 269 273 285 283 287 290 323 351 358 360 354 351 349
282 285 285 283 259 251 250 254 258 248 227 235 217 206 248 188 205 184 190 212 230 227 217 211 184 189 216 231 251 258 258 287 306 316 73 44 358 350 347 352 345 338 332 332
273 282 272 231 216 240 271 260 219 215 221 229 216 201 241 185 183 190 190 201 237 249 221 181 225 250 240 251 256 264 258 278 191 45 6 348 337 334 328 324 327 326 326 328
257 226 222 237 235 260 230 230 212 203 242 222 224 218 233 225 184 180 217 195 205 251 242 197 242 255 238 255 253 222 187 137 76 11 349 334 323 321 322 323 323 323 325 325
207 218 235 252 233 229 232 224 218 205 226 202 203 213 217 208 197 189 197 207 181 244 150 223 259 250 246 146 134 139 126 14 342 325 324 320 310 310 311 310 312 316 320 322
236 232 218 192 207 228 214 218 235 211 206 195 193 197 197 202 206 219 188 220 227 134 184 231 229 262 170 132 105 89 6 341 328 313 301 298 296 305 298 299 311 316 316 319
190 195 229 217 224 222 201 189 201 218 200 183 197 216 203 206 197 237 238 230 140 210 222 235 256 204 159 125 51 347 334 328 324 317 304 297 304 307 304 301 315 312 310 312
197 194 221 224 230 258 259 241 242 262 235 181 186 234 212 211 235 215 234 218 245 210 226 239 325 222 179 200 313 316 317 320 321 318 312 304 305 308 309 314 316 313 312 309
207 206 235 241 220 242 244 248 255 250 222 218 237 255 233 241 220 261 221 252 228 259 196 315 1 314 305 305 311 316 313 314 313 310 309 301 302 308 312 314 311 310 311 305
211 221 227 237 241 240 246 247 255 261 198 229 214 229 224 328 219 266 204 222 237 281 288 304 306 303 300 303 304 307 306 304 305 303 302 300 307 310 310 308 312 311 305 302